Year,Month,Day,Hour,Minute,Value (Times are PST for temperature in C)
2015,07,18,00,00,13.60
2015,07,18,00,01,13.60
2015,07,18,00,02,13.60
2015,07,18,00,03,13.60
2015,07,18,00,04,13.60
2015,07,18,00,05,13.60
2015,07,18,00,06,13.60
2015,07,18,00,07,13.60
2015,07,18,00,08,13.60
2015,07,18,00,09,13.60
2015,07,18,00,10,13.60
2015,07,18,00,11,13.60
2015,07,18,00,12,13.60
2015,07,18,00,13,13.60
2015,07,18,00,14,13.60
2015,07,18,00,15,13.60
2015,07,18,00,16,13.60
2015,07,18,00,17,13.60
2015,07,18,00,18,13.60
2015,07,18,00,19,13.60
2015,07,18,00,20,13.60
2015,07,18,00,21,13.70
2015,07,18,00,22,13.70
2015,07,18,00,23,13.70
2015,07,18,00,24,13.70
2015,07,18,00,25,13.70
2015,07,18,00,26,13.70
2015,07,18,00,27,13.70
2015,07,18,00,28,13.70
2015,07,18,00,29,13.70
2015,07,18,00,30,13.70
2015,07,18,00,31,13.70
2015,07,18,00,32,13.70
2015,07,18,00,33,13.70
2015,07,18,00,34,13.70
2015,07,18,00,35,13.70
2015,07,18,00,36,13.70
2015,07,18,00,37,13.70
2015,07,18,00,38,13.70
2015,07,18,00,39,13.70
2015,07,18,00,40,13.70
2015,07,18,00,41,13.70
2015,07,18,00,42,13.70
2015,07,18,00,43,13.70
2015,07,18,00,44,13.70
2015,07,18,00,45,13.80
2015,07,18,00,46,13.80
2015,07,18,00,47,13.80
2015,07,18,00,48,13.80
2015,07,18,00,49,13.80
2015,07,18,00,50,13.80
2015,07,18,00,51,13.80
2015,07,18,00,52,13.80
2015,07,18,00,53,13.80
2015,07,18,00,54,13.80
2015,07,18,00,55,13.80
2015,07,18,00,56,13.70
2015,07,18,00,57,13.70
2015,07,18,00,58,13.70
2015,07,18,00,59,13.70
2015,07,18,01,00,13.70
2015,07,18,01,01,13.70
2015,07,18,01,02,13.70
2015,07,18,01,03,13.70
2015,07,18,01,04,13.70
2015,07,18,01,05,13.70
2015,07,18,01,06,13.80
2015,07,18,01,07,13.80
2015,07,18,01,08,13.80
2015,07,18,01,09,13.80
2015,07,18,01,10,13.80
2015,07,18,01,11,13.80
2015,07,18,01,12,13.90
2015,07,18,01,13,13.90
2015,07,18,01,14,13.90
2015,07,18,01,15,13.90
2015,07,18,01,16,13.90
2015,07,18,01,17,14.00
2015,07,18,01,18,14.00
2015,07,18,01,19,14.10
2015,07,18,01,20,14.10
2015,07,18,01,21,14.10
2015,07,18,01,22,14.10
2015,07,18,01,23,14.10
2015,07,18,01,24,14.10
2015,07,18,01,25,14.00
2015,07,18,01,26,14.00
2015,07,18,01,27,13.90
2015,07,18,01,28,13.90
2015,07,18,01,29,13.90
2015,07,18,01,30,13.80
2015,07,18,01,31,13.80
2015,07,18,01,32,13.80
2015,07,18,01,33,13.80
2015,07,18,01,34,13.80
2015,07,18,01,35,13.80
2015,07,18,01,36,13.80
2015,07,18,01,37,13.80
2015,07,18,01,38,13.80
2015,07,18,01,39,13.80
2015,07,18,01,40,13.70
2015,07,18,01,41,13.70
2015,07,18,01,42,13.70
2015,07,18,01,43,13.70
2015,07,18,01,44,13.70
2015,07,18,01,45,13.70
2015,07,18,01,46,13.70
2015,07,18,01,47,13.60
2015,07,18,01,48,13.60
2015,07,18,01,49,13.60
2015,07,18,01,50,13.60
2015,07,18,01,51,13.60
2015,07,18,01,52,13.60
2015,07,18,01,53,13.60
2015,07,18,01,54,13.60
2015,07,18,01,55,13.60
2015,07,18,01,56,13.60
2015,07,18,01,57,13.60
2015,07,18,01,58,13.60
2015,07,18,01,59,13.60
2015,07,18,02,00,13.60
2015,07,18,02,01,13.50
2015,07,18,02,02,13.50
2015,07,18,02,03,13.50
2015,07,18,02,04,13.50
2015,07,18,02,05,13.40
2015,07,18,02,06,13.40
2015,07,18,02,07,13.40
2015,07,18,02,08,13.40
2015,07,18,02,09,13.40
2015,07,18,02,10,13.40
2015,07,18,02,11,13.40
2015,07,18,02,12,13.40
2015,07,18,02,13,13.40
2015,07,18,02,14,13.40
2015,07,18,02,15,13.40
2015,07,18,02,16,13.40
2015,07,18,02,17,13.40
2015,07,18,02,18,13.40
2015,07,18,02,19,13.40
2015,07,18,02,20,13.40
2015,07,18,02,21,13.40
2015,07,18,02,22,13.50
2015,07,18,02,23,13.50
2015,07,18,02,24,13.50
2015,07,18,02,25,13.50
2015,07,18,02,26,13.50
2015,07,18,02,27,13.50
2015,07,18,02,28,13.60
2015,07,18,02,29,13.60
2015,07,18,02,30,13.60
2015,07,18,02,31,13.70
2015,07,18,02,32,13.70
2015,07,18,02,33,13.80
2015,07,18,02,34,13.80
2015,07,18,02,35,13.80
2015,07,18,02,36,13.80
2015,07,18,02,37,13.80
2015,07,18,02,38,13.80
2015,07,18,02,39,13.90
2015,07,18,02,40,13.90
2015,07,18,02,41,13.90
2015,07,18,02,42,13.90
2015,07,18,02,43,13.90
2015,07,18,02,44,13.90
2015,07,18,02,45,13.90
2015,07,18,02,46,13.90
2015,07,18,02,47,14.00
2015,07,18,02,48,14.10
2015,07,18,02,49,14.10
2015,07,18,02,50,14.10
2015,07,18,02,51,14.10
2015,07,18,02,52,14.10
2015,07,18,02,53,14.10
2015,07,18,02,54,14.10
2015,07,18,02,55,14.10
2015,07,18,02,56,14.10
2015,07,18,02,57,14.20
2015,07,18,02,58,14.20
2015,07,18,02,59,14.20
2015,07,18,03,00,14.20
2015,07,18,03,01,14.30
2015,07,18,03,02,14.30
2015,07,18,03,03,14.30
2015,07,18,03,04,14.30
2015,07,18,03,05,14.30
2015,07,18,03,06,14.30
2015,07,18,03,07,14.30
2015,07,18,03,08,14.30
2015,07,18,03,09,14.20
2015,07,18,03,10,14.20
2015,07,18,03,11,14.20
2015,07,18,03,12,14.20
2015,07,18,03,13,14.30
2015,07,18,03,14,14.30
2015,07,18,03,15,14.30
2015,07,18,03,16,14.30
2015,07,18,03,17,14.30
2015,07,18,03,18,14.30
2015,07,18,03,19,14.30
2015,07,18,03,20,14.30
2015,07,18,03,21,14.30
2015,07,18,03,22,14.30
2015,07,18,03,23,14.30
2015,07,18,03,24,14.40
2015,07,18,03,25,14.40
2015,07,18,03,26,14.40
2015,07,18,03,27,14.50
2015,07,18,03,28,14.50
2015,07,18,03,29,14.50
2015,07,18,03,30,14.60
2015,07,18,03,31,14.60
2015,07,18,03,32,14.60
2015,07,18,03,33,14.50
2015,07,18,03,34,14.50
2015,07,18,03,35,14.40
2015,07,18,03,36,14.30
2015,07,18,03,37,14.20
2015,07,18,03,38,14.10
2015,07,18,03,39,14.10
2015,07,18,03,40,14.10
2015,07,18,03,41,14.10
2015,07,18,03,42,14.10
2015,07,18,03,43,14.20
2015,07,18,03,44,14.20
2015,07,18,03,45,14.20
2015,07,18,03,46,14.10
2015,07,18,03,47,14.10
2015,07,18,03,48,14.10
2015,07,18,03,49,14.10
2015,07,18,03,50,14.10
2015,07,18,03,51,14.10
2015,07,18,03,52,14.10
2015,07,18,03,53,14.10
2015,07,18,03,54,14.10
2015,07,18,03,55,14.10
2015,07,18,03,56,14.10
2015,07,18,03,57,14.10
2015,07,18,03,58,14.10
2015,07,18,03,59,14.10
2015,07,18,04,00,14.10
2015,07,18,04,01,14.00
2015,07,18,04,02,14.00
2015,07,18,04,03,13.90
2015,07,18,04,04,13.90
2015,07,18,04,05,13.80
2015,07,18,04,06,13.80
2015,07,18,04,07,13.70
2015,07,18,04,08,13.70
2015,07,18,04,09,13.70
2015,07,18,04,10,13.70
2015,07,18,04,11,13.70
2015,07,18,04,12,13.70
2015,07,18,04,13,13.70
2015,07,18,04,14,13.70
2015,07,18,04,15,13.70
2015,07,18,04,16,13.70
2015,07,18,04,17,13.80
2015,07,18,04,18,13.90
2015,07,18,04,19,14.00
2015,07,18,04,20,14.10
2015,07,18,04,21,14.10
2015,07,18,04,22,14.20
2015,07,18,04,23,14.20
2015,07,18,04,24,14.20
2015,07,18,04,25,14.20
2015,07,18,04,26,14.20
2015,07,18,04,27,14.20
2015,07,18,04,28,14.30
2015,07,18,04,29,14.40
2015,07,18,04,30,14.60
2015,07,18,04,31,14.80
2015,07,18,04,32,14.90
2015,07,18,04,33,15.00
2015,07,18,04,34,15.10
2015,07,18,04,35,15.20
2015,07,18,04,36,15.30
2015,07,18,04,37,15.30
2015,07,18,04,38,15.40
2015,07,18,04,39,15.40
2015,07,18,04,40,15.40
2015,07,18,04,41,15.40
2015,07,18,04,42,15.30
2015,07,18,04,43,15.30
2015,07,18,04,44,15.30
2015,07,18,04,45,15.30
2015,07,18,04,46,15.20
2015,07,18,04,47,15.20
2015,07,18,04,48,15.10
2015,07,18,04,49,15.00
2015,07,18,04,50,14.90
2015,07,18,04,51,14.90
2015,07,18,04,52,14.90
2015,07,18,04,53,15.00
2015,07,18,04,54,15.10
2015,07,18,04,55,15.10
2015,07,18,04,56,15.20
2015,07,18,04,57,15.20
2015,07,18,04,58,15.20
2015,07,18,04,59,15.20
2015,07,18,05,00,15.20
2015,07,18,05,01,15.20
2015,07,18,05,02,15.20
2015,07,18,05,03,15.10
2015,07,18,05,04,15.10
2015,07,18,05,05,15.10
2015,07,18,05,06,15.10
2015,07,18,05,07,15.10
2015,07,18,05,08,15.10
2015,07,18,05,09,15.10
2015,07,18,05,10,15.10
2015,07,18,05,11,15.10
2015,07,18,05,12,15.10
2015,07,18,05,13,15.00
2015,07,18,05,14,15.00
2015,07,18,05,15,15.00
2015,07,18,05,16,15.00
2015,07,18,05,17,14.90
2015,07,18,05,18,14.90
2015,07,18,05,19,14.90
2015,07,18,05,20,14.90
2015,07,18,05,21,14.90
2015,07,18,05,22,14.90
2015,07,18,05,23,14.80
2015,07,18,05,24,14.80
2015,07,18,05,25,14.70
2015,07,18,05,26,14.70
2015,07,18,05,27,14.60
2015,07,18,05,28,14.60
2015,07,18,05,29,14.80
2015,07,18,05,30,14.90
2015,07,18,05,31,15.10
2015,07,18,05,32,15.20
2015,07,18,05,33,15.30
2015,07,18,05,34,15.40
2015,07,18,05,35,15.50
2015,07,18,05,36,15.50
2015,07,18,05,37,15.60
2015,07,18,05,38,15.60
2015,07,18,05,39,15.60
2015,07,18,05,40,15.70
2015,07,18,05,41,15.70
2015,07,18,05,42,15.70
2015,07,18,05,43,15.80
2015,07,18,05,44,15.80
2015,07,18,05,45,15.80
2015,07,18,05,46,15.80
2015,07,18,05,47,15.70
2015,07,18,05,48,15.70
2015,07,18,05,49,15.70
2015,07,18,05,50,15.70
2015,07,18,05,51,15.70
2015,07,18,05,52,15.70
2015,07,18,05,53,15.70
2015,07,18,05,54,15.60
2015,07,18,05,55,15.60
2015,07,18,05,56,15.50
2015,07,18,05,57,15.40
2015,07,18,05,58,15.30
2015,07,18,05,59,15.30
2015,07,18,06,00,15.40
2015,07,18,06,01,15.50
2015,07,18,06,02,15.50
2015,07,18,06,03,15.60
2015,07,18,06,04,15.70
2015,07,18,06,05,15.80
2015,07,18,06,06,15.90
2015,07,18,06,07,16.00
2015,07,18,06,08,16.10
2015,07,18,06,09,16.10
2015,07,18,06,10,16.20
2015,07,18,06,11,16.20
2015,07,18,06,12,16.20
2015,07,18,06,13,16.30
2015,07,18,06,14,16.30
2015,07,18,06,15,16.40
2015,07,18,06,16,16.50
2015,07,18,06,17,16.60
2015,07,18,06,18,16.70
2015,07,18,06,19,16.70
2015,07,18,06,20,16.80
2015,07,18,06,21,16.90
2015,07,18,06,22,16.90
2015,07,18,06,23,16.90
2015,07,18,06,24,16.90
2015,07,18,06,25,16.90
2015,07,18,06,26,17.00
2015,07,18,06,27,17.00
2015,07,18,06,28,17.00
2015,07,18,06,29,17.10
2015,07,18,06,30,17.10
2015,07,18,06,31,17.10
2015,07,18,06,32,17.10
2015,07,18,06,33,17.10
2015,07,18,06,34,17.20
2015,07,18,06,35,17.20
2015,07,18,06,36,17.20
2015,07,18,06,37,17.20
2015,07,18,06,38,17.20
2015,07,18,06,39,17.20
2015,07,18,06,40,17.20
2015,07,18,06,41,17.20
2015,07,18,06,42,17.20
2015,07,18,06,43,17.20
2015,07,18,06,44,17.20
2015,07,18,06,45,17.20
2015,07,18,06,46,17.20
2015,07,18,06,47,17.20
2015,07,18,06,48,17.20
2015,07,18,06,49,17.20
2015,07,18,06,50,17.20
2015,07,18,06,51,17.30
2015,07,18,06,52,17.30
2015,07,18,06,53,17.40
2015,07,18,06,54,17.40
2015,07,18,06,55,17.50
2015,07,18,06,56,17.60
2015,07,18,06,57,17.70
2015,07,18,06,58,17.70
2015,07,18,06,59,17.80
2015,07,18,07,00,17.80
2015,07,18,07,01,17.90
2015,07,18,07,02,17.90
2015,07,18,07,03,17.90
2015,07,18,07,04,17.90
2015,07,18,07,05,17.90
2015,07,18,07,06,17.80
2015,07,18,07,07,17.80
2015,07,18,07,08,17.80
2015,07,18,07,09,17.70
2015,07,18,07,10,17.70
2015,07,18,07,11,17.70
2015,07,18,07,12,17.60
2015,07,18,07,13,17.60
2015,07,18,07,14,17.60
2015,07,18,07,15,17.50
2015,07,18,07,16,17.50
2015,07,18,07,17,17.50
2015,07,18,07,18,17.50
2015,07,18,07,19,17.50
2015,07,18,07,20,17.50
2015,07,18,07,21,17.50
2015,07,18,07,22,17.60
2015,07,18,07,23,17.70
2015,07,18,07,24,17.80
2015,07,18,07,25,17.90
2015,07,18,07,26,18.00
2015,07,18,07,27,18.10
2015,07,18,07,28,18.30
2015,07,18,07,29,18.40
2015,07,18,07,30,18.40
2015,07,18,07,31,18.50
2015,07,18,07,32,18.60
2015,07,18,07,33,18.60
2015,07,18,07,34,18.70
2015,07,18,07,35,18.80
2015,07,18,07,36,18.90
2015,07,18,07,37,19.00
2015,07,18,07,38,19.10
2015,07,18,07,39,19.20
2015,07,18,07,40,19.40
2015,07,18,07,41,19.50
2015,07,18,07,42,19.70
2015,07,18,07,43,19.80
2015,07,18,07,44,19.90
2015,07,18,07,45,20.00
2015,07,18,07,46,20.20
2015,07,18,07,47,20.30
2015,07,18,07,48,20.30
2015,07,18,07,49,20.40
2015,07,18,07,50,20.50
2015,07,18,07,51,20.50
2015,07,18,07,52,20.60
2015,07,18,07,53,20.60
2015,07,18,07,54,20.60
2015,07,18,07,55,20.60
2015,07,18,07,56,20.60
2015,07,18,07,57,20.60
2015,07,18,07,58,20.50
2015,07,18,07,59,20.50
2015,07,18,08,00,20.50
2015,07,18,08,01,20.50
2015,07,18,08,02,20.60
2015,07,18,08,03,20.60
2015,07,18,08,04,20.60
2015,07,18,08,05,20.60
2015,07,18,08,06,20.60
2015,07,18,08,07,20.70
2015,07,18,08,08,20.70
2015,07,18,08,09,20.80
2015,07,18,08,10,20.80
2015,07,18,08,11,20.90
2015,07,18,08,12,20.90
2015,07,18,08,13,20.90
2015,07,18,08,14,20.90
2015,07,18,08,15,20.90
2015,07,18,08,16,20.90
2015,07,18,08,17,20.90
2015,07,18,08,18,21.00
2015,07,18,08,19,21.00
2015,07,18,08,20,21.00
2015,07,18,08,21,21.10
2015,07,18,08,22,21.20
2015,07,18,08,23,21.30
2015,07,18,08,24,21.30
2015,07,18,08,25,21.30
2015,07,18,08,26,21.30
2015,07,18,08,27,21.30
2015,07,18,08,28,21.20
2015,07,18,08,29,21.20
2015,07,18,08,30,21.30
2015,07,18,08,31,21.30
2015,07,18,08,32,21.40
2015,07,18,08,33,21.40
2015,07,18,08,34,21.50
2015,07,18,08,35,21.60
2015,07,18,08,36,21.70
2015,07,18,08,37,21.70
2015,07,18,08,38,21.70
2015,07,18,08,39,21.80
2015,07,18,08,40,21.80
2015,07,18,08,41,21.90
2015,07,18,08,42,22.00
2015,07,18,08,43,22.10
2015,07,18,08,44,22.20
2015,07,18,08,45,22.20
2015,07,18,08,46,22.20
2015,07,18,08,47,22.30
2015,07,18,08,48,22.30
2015,07,18,08,49,22.20
2015,07,18,08,50,22.20
2015,07,18,08,51,22.10
2015,07,18,08,52,22.20
2015,07,18,08,53,22.20
2015,07,18,08,54,22.30
2015,07,18,08,55,22.30
2015,07,18,08,56,22.30
2015,07,18,08,57,22.40
2015,07,18,08,58,22.40
2015,07,18,08,59,22.50
2015,07,18,09,00,22.40
2015,07,18,09,01,22.40
2015,07,18,09,02,22.30
2015,07,18,09,03,22.30
2015,07,18,09,04,22.30
2015,07,18,09,05,22.30
2015,07,18,09,06,22.30
2015,07,18,09,07,22.30
2015,07,18,09,08,22.30
2015,07,18,09,09,22.40
2015,07,18,09,10,22.50
2015,07,18,09,11,22.50
2015,07,18,09,12,22.50
2015,07,18,09,13,22.60
2015,07,18,09,14,22.70
2015,07,18,09,15,22.70
2015,07,18,09,16,22.80
2015,07,18,09,17,22.70
2015,07,18,09,18,22.70
2015,07,18,09,19,22.70
2015,07,18,09,20,22.70
2015,07,18,09,21,22.80
2015,07,18,09,22,22.90
2015,07,18,09,23,23.00
2015,07,18,09,24,23.10
2015,07,18,09,25,23.10
2015,07,18,09,26,23.20
2015,07,18,09,27,23.20
2015,07,18,09,28,23.20
2015,07,18,09,29,23.20
2015,07,18,09,30,23.20
2015,07,18,09,31,23.10
2015,07,18,09,32,23.10
2015,07,18,09,33,23.20
2015,07,18,09,34,23.20
2015,07,18,09,35,23.10
2015,07,18,09,36,23.00
2015,07,18,09,37,22.90
2015,07,18,09,38,22.80
2015,07,18,09,39,22.90
2015,07,18,09,40,22.80
2015,07,18,09,41,22.80
2015,07,18,09,42,22.80
2015,07,18,09,43,22.80
2015,07,18,09,44,22.80
2015,07,18,09,45,22.80
2015,07,18,09,46,22.90
2015,07,18,09,47,22.90
2015,07,18,09,48,23.00
2015,07,18,09,49,23.10
2015,07,18,09,50,23.20
2015,07,18,09,51,23.20
2015,07,18,09,52,23.40
2015,07,18,09,53,23.50
2015,07,18,09,54,23.70
2015,07,18,09,55,23.80
2015,07,18,09,56,23.80
2015,07,18,09,57,23.90
2015,07,18,09,58,23.90
2015,07,18,09,59,23.90
2015,07,18,10,00,24.00
2015,07,18,10,01,24.00
2015,07,18,10,02,23.90
2015,07,18,10,03,24.00
2015,07,18,10,04,24.00
2015,07,18,10,05,24.00
2015,07,18,10,06,24.00
2015,07,18,10,07,24.10
2015,07,18,10,08,24.10
2015,07,18,10,09,24.10
2015,07,18,10,10,24.10
2015,07,18,10,11,24.20
2015,07,18,10,12,24.20
2015,07,18,10,13,24.30
2015,07,18,10,14,24.30
2015,07,18,10,15,24.30
2015,07,18,10,16,24.30
2015,07,18,10,17,24.40
2015,07,18,10,18,24.40
2015,07,18,10,19,24.50
2015,07,18,10,20,24.60
2015,07,18,10,21,24.70
2015,07,18,10,22,24.70
2015,07,18,10,23,24.70
2015,07,18,10,24,24.50
2015,07,18,10,25,24.40
2015,07,18,10,26,24.40
2015,07,18,10,27,24.40
2015,07,18,10,28,24.40
2015,07,18,10,29,24.50
2015,07,18,10,30,24.60
2015,07,18,10,31,24.60
2015,07,18,10,32,24.60
2015,07,18,10,33,24.60
2015,07,18,10,34,24.70
2015,07,18,10,35,24.80
2015,07,18,10,36,24.80
2015,07,18,10,37,24.90
2015,07,18,10,38,24.90
2015,07,18,10,39,24.90
2015,07,18,10,40,25.00
2015,07,18,10,41,25.10
2015,07,18,10,42,25.10
2015,07,18,10,43,25.20
2015,07,18,10,44,25.30
2015,07,18,10,45,25.40
2015,07,18,10,46,25.60
2015,07,18,10,47,25.70
2015,07,18,10,48,25.80
2015,07,18,10,49,25.80
2015,07,18,10,50,25.80
2015,07,18,10,51,25.70
2015,07,18,10,52,25.70
2015,07,18,10,53,25.70
2015,07,18,10,54,25.50
2015,07,18,10,55,25.40
2015,07,18,10,56,25.40
2015,07,18,10,57,25.30
2015,07,18,10,58,25.20
2015,07,18,10,59,25.20
2015,07,18,11,00,25.10
2015,07,18,11,01,25.10
2015,07,18,11,02,25.10
2015,07,18,11,03,25.10
2015,07,18,11,04,25.20
2015,07,18,11,05,25.30
2015,07,18,11,06,25.40
2015,07,18,11,07,25.50
2015,07,18,11,08,25.70
2015,07,18,11,09,25.80
2015,07,18,11,10,25.90
2015,07,18,11,11,26.00
2015,07,18,11,12,26.10
2015,07,18,11,13,26.20
2015,07,18,11,14,26.20
2015,07,18,11,15,26.10
2015,07,18,11,16,26.20
2015,07,18,11,17,26.10
2015,07,18,11,18,26.00
2015,07,18,11,19,25.90
2015,07,18,11,20,25.90
2015,07,18,11,21,26.00
2015,07,18,11,22,26.10
2015,07,18,11,23,26.20
2015,07,18,11,24,26.30
2015,07,18,11,25,26.30
2015,07,18,11,26,26.40
2015,07,18,11,27,26.40
2015,07,18,11,28,26.30
2015,07,18,11,29,26.20
2015,07,18,11,30,26.00
2015,07,18,11,31,26.00
2015,07,18,11,32,26.00
2015,07,18,11,33,26.00
2015,07,18,11,34,26.10
2015,07,18,11,35,26.20
2015,07,18,11,36,26.20
2015,07,18,11,37,26.30
2015,07,18,11,38,26.40
2015,07,18,11,39,26.40
2015,07,18,11,40,26.40
2015,07,18,11,41,26.40
2015,07,18,11,42,26.40
2015,07,18,11,43,26.40
2015,07,18,11,44,26.50
2015,07,18,11,45,26.50
2015,07,18,11,46,26.60
2015,07,18,11,47,26.60
2015,07,18,11,48,26.70
2015,07,18,11,49,26.80
2015,07,18,11,50,26.80
2015,07,18,11,51,26.80
2015,07,18,11,52,26.90
2015,07,18,11,53,26.90
2015,07,18,11,54,26.90
2015,07,18,11,55,26.90
2015,07,18,11,56,26.80
2015,07,18,11,57,26.90
2015,07,18,11,58,26.80
2015,07,18,11,59,26.90
2015,07,18,12,00,26.90
2015,07,18,12,01,27.00
2015,07,18,12,02,27.10
2015,07,18,12,03,27.10
2015,07,18,12,04,27.10
2015,07,18,12,05,27.10
2015,07,18,12,06,27.10
2015,07,18,12,07,27.30
2015,07,18,12,08,27.40
2015,07,18,12,09,27.60
2015,07,18,12,10,27.80
2015,07,18,12,11,27.90
2015,07,18,12,12,28.00
2015,07,18,12,13,28.10
2015,07,18,12,14,28.10
2015,07,18,12,15,28.10
2015,07,18,12,16,28.00
2015,07,18,12,17,28.00
2015,07,18,12,18,27.90
2015,07,18,12,19,27.90
2015,07,18,12,20,27.80
2015,07,18,12,21,27.80
2015,07,18,12,22,27.70
2015,07,18,12,23,27.70
2015,07,18,12,24,27.60
2015,07,18,12,25,27.50
2015,07,18,12,26,27.50
2015,07,18,12,27,27.50
2015,07,18,12,28,27.50
2015,07,18,12,29,27.60
2015,07,18,12,30,27.60
2015,07,18,12,31,27.50
2015,07,18,12,32,27.50
2015,07,18,12,33,27.50
2015,07,18,12,34,27.50
2015,07,18,12,35,27.50
2015,07,18,12,36,27.50
2015,07,18,12,37,27.30
2015,07,18,12,38,27.20
2015,07,18,12,39,26.90
2015,07,18,12,40,26.80
2015,07,18,12,41,26.60
2015,07,18,12,42,26.40
2015,07,18,12,43,26.20
2015,07,18,12,44,26.10
2015,07,18,12,45,25.90
2015,07,18,12,46,25.90
2015,07,18,12,47,25.90
2015,07,18,12,48,25.90
2015,07,18,12,49,25.90
2015,07,18,12,50,25.90
2015,07,18,12,51,25.90
2015,07,18,12,52,26.00
2015,07,18,12,53,26.10
2015,07,18,12,54,26.20
2015,07,18,12,55,26.30
2015,07,18,12,56,26.40
2015,07,18,12,57,26.40
2015,07,18,12,58,26.40
2015,07,18,12,59,26.40
2015,07,18,13,00,26.30
2015,07,18,13,01,26.30
2015,07,18,13,02,26.30
2015,07,18,13,03,26.30
2015,07,18,13,04,26.40
2015,07,18,13,05,26.40
2015,07,18,13,06,26.40
2015,07,18,13,07,26.40
2015,07,18,13,08,26.40
2015,07,18,13,09,26.40
2015,07,18,13,10,26.30
2015,07,18,13,11,26.40
2015,07,18,13,12,26.40
2015,07,18,13,13,26.40
2015,07,18,13,14,26.40
2015,07,18,13,15,26.40
2015,07,18,13,16,26.40
2015,07,18,13,17,26.50
2015,07,18,13,18,26.50
2015,07,18,13,19,26.60
2015,07,18,13,20,26.60
2015,07,18,13,21,26.60
2015,07,18,13,22,26.70
2015,07,18,13,23,26.80
2015,07,18,13,24,26.90
2015,07,18,13,25,27.10
2015,07,18,13,26,27.10
2015,07,18,13,27,27.10
2015,07,18,13,28,27.10
2015,07,18,13,29,27.30
2015,07,18,13,30,27.30
2015,07,18,13,31,27.40
2015,07,18,13,32,27.50
2015,07,18,13,33,27.60
2015,07,18,13,34,27.70
2015,07,18,13,35,27.80
2015,07,18,13,36,27.80
2015,07,18,13,37,27.90
2015,07,18,13,38,27.90
2015,07,18,13,39,28.00
2015,07,18,13,40,28.10
2015,07,18,13,41,28.20
2015,07,18,13,42,28.20
2015,07,18,13,43,28.30
2015,07,18,13,44,28.50
2015,07,18,13,45,28.60
2015,07,18,13,46,28.60
2015,07,18,13,47,28.50
2015,07,18,13,48,28.60
2015,07,18,13,49,28.60
2015,07,18,13,50,28.60
2015,07,18,13,51,28.60
2015,07,18,13,52,28.70
2015,07,18,13,53,28.60
2015,07,18,13,54,28.70
2015,07,18,13,55,28.70
2015,07,18,13,56,28.70
2015,07,18,13,57,28.60
2015,07,18,13,58,28.50
2015,07,18,13,59,28.40
2015,07,18,14,00,28.20
2015,07,18,14,01,28.10
2015,07,18,14,02,28.00
2015,07,18,14,03,28.00
2015,07,18,14,04,27.90
2015,07,18,14,05,28.00
2015,07,18,14,06,28.10
2015,07,18,14,07,28.10
2015,07,18,14,08,28.20
2015,07,18,14,09,28.30
2015,07,18,14,10,28.30
2015,07,18,14,11,28.40
2015,07,18,14,12,28.40
2015,07,18,14,13,28.30
2015,07,18,14,14,28.30
2015,07,18,14,15,28.20
2015,07,18,14,16,28.10
2015,07,18,14,17,28.10
2015,07,18,14,18,27.90
2015,07,18,14,19,27.80
2015,07,18,14,20,27.70
2015,07,18,14,21,27.50
2015,07,18,14,22,27.30
2015,07,18,14,23,27.10
2015,07,18,14,24,27.00
2015,07,18,14,25,27.00
2015,07,18,14,26,26.90
2015,07,18,14,27,26.80
2015,07,18,14,28,26.70
2015,07,18,14,29,26.70
2015,07,18,14,30,26.60
2015,07,18,14,31,26.60
2015,07,18,14,32,26.60
2015,07,18,14,33,26.60
2015,07,18,14,34,26.60
2015,07,18,14,35,26.60
2015,07,18,14,36,26.60
2015,07,18,14,37,26.60
2015,07,18,14,38,26.60
2015,07,18,14,39,26.60
2015,07,18,14,40,26.60
2015,07,18,14,41,26.70
2015,07,18,14,42,26.80
2015,07,18,14,43,26.80
2015,07,18,14,44,26.90
2015,07,18,14,45,26.90
2015,07,18,14,46,26.90
2015,07,18,14,47,26.90
2015,07,18,14,48,27.00
2015,07,18,14,49,27.10
2015,07,18,14,50,27.10
2015,07,18,14,51,27.20
2015,07,18,14,52,27.20
2015,07,18,14,53,27.30
2015,07,18,14,54,27.30
2015,07,18,14,55,27.40
2015,07,18,14,56,27.50
2015,07,18,14,57,27.60
2015,07,18,14,58,27.70
2015,07,18,14,59,27.80
2015,07,18,15,00,27.80
2015,07,18,15,01,27.70
2015,07,18,15,02,27.70
2015,07,18,15,03,27.60
2015,07,18,15,04,27.60
2015,07,18,15,05,27.60
2015,07,18,15,06,27.60
2015,07,18,15,07,27.70
2015,07,18,15,08,27.70
2015,07,18,15,09,27.70
2015,07,18,15,10,27.70
2015,07,18,15,11,27.60
2015,07,18,15,12,27.40
2015,07,18,15,13,27.40
2015,07,18,15,14,27.40
2015,07,18,15,15,27.30
2015,07,18,15,16,27.20
2015,07,18,15,17,27.10
2015,07,18,15,18,27.10
2015,07,18,15,19,27.10
2015,07,18,15,20,27.20
2015,07,18,15,21,27.20
2015,07,18,15,22,27.30
2015,07,18,15,23,27.50
2015,07,18,15,24,27.60
2015,07,18,15,25,27.70
2015,07,18,15,26,27.80
2015,07,18,15,27,27.80
2015,07,18,15,28,27.80
2015,07,18,15,29,27.70
2015,07,18,15,30,27.70
2015,07,18,15,31,27.60
2015,07,18,15,32,27.70
2015,07,18,15,33,27.70
2015,07,18,15,34,27.80
2015,07,18,15,35,27.90
2015,07,18,15,36,28.00
2015,07,18,15,37,28.10
2015,07,18,15,38,28.30
2015,07,18,15,39,28.30
2015,07,18,15,40,28.10
2015,07,18,15,41,27.90
2015,07,18,15,42,27.60
2015,07,18,15,43,27.40
2015,07,18,15,44,27.30
2015,07,18,15,45,27.30
2015,07,18,15,46,27.20
2015,07,18,15,47,27.30
2015,07,18,15,48,27.30
2015,07,18,15,49,27.30
2015,07,18,15,50,27.30
2015,07,18,15,51,27.30
2015,07,18,15,52,27.30
2015,07,18,15,53,27.30
2015,07,18,15,54,27.40
2015,07,18,15,55,27.50
2015,07,18,15,56,27.60
2015,07,18,15,57,27.70
2015,07,18,15,58,27.80
2015,07,18,15,59,27.80
2015,07,18,16,00,27.90
2015,07,18,16,01,27.90
2015,07,18,16,02,27.90
2015,07,18,16,03,28.00
2015,07,18,16,04,28.00
2015,07,18,16,05,27.90
2015,07,18,16,06,27.80
2015,07,18,16,07,27.90
2015,07,18,16,08,27.80
2015,07,18,16,09,27.70
2015,07,18,16,10,27.60
2015,07,18,16,11,27.60
2015,07,18,16,12,27.60
2015,07,18,16,13,27.60
2015,07,18,16,14,27.70
2015,07,18,16,15,27.70
2015,07,18,16,16,27.70
2015,07,18,16,17,27.80
2015,07,18,16,18,27.90
2015,07,18,16,19,27.80
2015,07,18,16,20,27.50
2015,07,18,16,21,27.40
2015,07,18,16,22,27.30
2015,07,18,16,23,27.30
2015,07,18,16,24,27.40
2015,07,18,16,25,27.50
2015,07,18,16,26,27.60
2015,07,18,16,27,27.80
2015,07,18,16,28,27.90
2015,07,18,16,29,28.10
2015,07,18,16,30,28.20
2015,07,18,16,31,28.20
2015,07,18,16,32,28.10
2015,07,18,16,33,28.10
2015,07,18,16,34,28.10
2015,07,18,16,35,28.10
2015,07,18,16,36,28.10
2015,07,18,16,37,28.10
2015,07,18,16,38,28.10
2015,07,18,16,39,28.10
2015,07,18,16,40,28.10
2015,07,18,16,41,28.10
2015,07,18,16,42,28.10
2015,07,18,16,43,28.10
2015,07,18,16,44,28.20
2015,07,18,16,45,28.20
2015,07,18,16,46,28.20
2015,07,18,16,47,28.20
2015,07,18,16,48,28.10
2015,07,18,16,49,28.00
2015,07,18,16,50,28.00
2015,07,18,16,51,27.90
2015,07,18,16,52,27.90
2015,07,18,16,53,28.00
2015,07,18,16,54,28.00
2015,07,18,16,55,28.00
2015,07,18,16,56,28.10
2015,07,18,16,57,28.10
2015,07,18,16,58,28.20
2015,07,18,16,59,28.30
2015,07,18,17,00,28.30
2015,07,18,17,01,28.30
2015,07,18,17,02,28.30
2015,07,18,17,03,28.30
2015,07,18,17,04,28.30
2015,07,18,17,05,28.40
2015,07,18,17,06,28.50
2015,07,18,17,07,28.60
2015,07,18,17,08,28.60
2015,07,18,17,09,28.60
2015,07,18,17,10,28.70
2015,07,18,17,11,28.60
2015,07,18,17,12,28.60
2015,07,18,17,13,28.60
2015,07,18,17,14,28.50
2015,07,18,17,15,28.30
2015,07,18,17,16,28.10
2015,07,18,17,17,27.70
2015,07,18,17,18,27.50
2015,07,18,17,19,27.30